Sitka, AK

12:51 PM AKDT on October 18, 2017 (GMT -0800)
Sitka Rocky Gutierrez

Weather History for PASI - January, 2014

Change the Weather History Date:

Monday, January 6, 2014

  Actual Average Record
Temperature  
Mean Temperature 42 °F -  
Max Temperature 44 °F 37 °F 58 °F (1958)
Min Temperature 41 °F 29 °F 6 °F (1965)
Degree Days  
Heating Degree Days 22    
Moisture  
Dew Point 41 °F    
Average Humidity 93    
Maximum Humidity 100    
Minimum Humidity 82    
Precipitation  
Precipitation 0.52 in - - ()
Sea Level Pressure  
Sea Level Pressure 29.92 in    
Wind  
Wind Speed 6 mph (ESE)    
Max Wind Speed 14 mph    
Max Gust Speed -    
Visibility 8 miles    
Events Rain    
Averages and records for this station are not official NWS values.
T = Trace of Precipitation, MM = Missing Value Source: NWS Daily Summary

Daily Weather History Graph

Daily Weather History Graph

Search for Another Location

Airport or City:

Trip Planner

Search our weather history database for the weather conditions in past years. The results will help you decide how hot, cold, wet, or windy it might be!

Date:

Astronomy

Jan. 06, 2014 Rise Set
Actual Time 8:37 AM AKST 3:37 PM AKST
Civil Twilight 7:49 AM AKST 4:26 PM AKST
Nautical Twilight 6:59 AM AKST 5:16 PM AKST
Astronomical Twilight 6:12 AM AKST 6:02 PM AKST
Moon 10:36 AM AKST (1/6) 11:47 PM AKST (1/6)
Length of Visible Light 8h 37m
Length of Day
7h 00m
Waxing Crescent, 36% of the Moon is Illuminated
Jan 6
Waxing Crescent
Jan 7
First Quarter
Jan 15
Full
Jan 23
Last Quarter
Jan 30
New

Hourly Weather History & Observations

Time (AKST) Temp. Windchill Dew Point Humidity Pressure Visibility Wind Dir Wind Speed Gust Speed Precip Events Conditions
12:00 AM 43.0 °F 38.2 °F 42.1 °F 97% 29.96 in 2.0 mi ESE 8.1 mph - 0.01 in Rain Light Rain
12:14 AM 43.0 °F 38.8 °F 42.1 °F 97% 29.96 in 3.0 mi SE 6.9 mph - 0.01 in   Overcast
12:20 AM 43.0 °F 38.8 °F 42.1 °F 97% 29.97 in 2.5 mi SE 6.9 mph - 0.01 in   Overcast
12:41 AM 43.0 °F 38.8 °F 42.1 °F 97% 29.97 in 2.5 mi SE 6.9 mph - 0.02 in Rain Light Rain
12:46 AM 43.0 °F 39.5 °F 42.1 °F 97% 29.97 in 3.0 mi SE 5.8 mph - 0.02 in   Overcast
12:53 AM 43.0 °F 38.8 °F 42.1 °F 97% 29.98 in 4.0 mi SSE 6.9 mph - 0.02 in Rain Light Rain
1:53 AM 43.0 °F 39.5 °F 42.1 °F 97% 29.99 in 6.0 mi South 5.8 mph - 0.00 in Rain Light Rain
2:30 AM 44.1 °F 42.5 °F 43.0 °F 96% 30.00 in 10.0 mi SSE 3.5 mph - 0.00 in Rain Light Rain
2:53 AM 43.0 °F - 42.1 °F 97% 29.99 in 10.0 mi Calm Calm - 0.00 in Rain Light Rain
3:53 AM 43.0 °F 39.5 °F 41.0 °F 93% 29.99 in 9.0 mi ESE 5.8 mph - 0.01 in Rain Light Rain
4:53 AM 43.0 °F 38.8 °F 41.0 °F 93% 29.98 in 10.0 mi SE 6.9 mph - 0.00 in   Overcast
5:22 AM 43.0 °F 40.3 °F 41.0 °F 93% 29.97 in 10.0 mi East 4.6 mph - N/A   Overcast
5:48 AM 42.8 °F - 42.8 °F 100% 29.97 in 9.0 mi Calm Calm - 0.00 in Rain Light Rain
5:53 AM 43.0 °F - 41.0 °F 93% 29.97 in 9.0 mi Calm Calm - 0.00 in Rain Light Rain
6:14 AM 43.0 °F 41.3 °F 42.1 °F 97% 29.96 in 10.0 mi East 3.5 mph - 0.00 in   Overcast
6:53 AM 43.0 °F 40.3 °F 42.1 °F 97% 29.96 in 10.0 mi NW 4.6 mph - 0.00 in Rain Light Rain
7:53 AM 43.0 °F - 42.1 °F 97% 29.96 in 10.0 mi Calm Calm - 0.01 in Rain Light Rain
8:53 AM 43.0 °F - 42.1 °F 97% 29.96 in 10.0 mi Calm Calm - 0.00 in   Overcast
9:53 AM 43.0 °F - 42.1 °F 97% 29.96 in 10.0 mi Calm Calm - N/A   Overcast
10:53 AM 43.0 °F - 42.1 °F 97% 29.95 in 7.0 mi Calm Calm - 0.01 in   Overcast
11:53 AM 43.0 °F 40.3 °F 42.1 °F 97% 29.93 in 10.0 mi NW 4.6 mph - 0.00 in   Overcast
12:53 PM 43.0 °F 40.3 °F 42.1 °F 97% 29.91 in 10.0 mi Variable 4.6 mph - 0.00 in   Overcast
1:53 PM 43.0 °F 40.3 °F 42.1 °F 97% 29.88 in 10.0 mi WNW 4.6 mph - 0.00 in Rain Light Rain
2:53 PM 44.1 °F 42.5 °F 39.9 °F 85% 29.88 in 10.0 mi ESE 3.5 mph - 0.02 in Rain Light Rain
3:53 PM 43.0 °F 40.3 °F 39.9 °F 89% 29.87 in 10.0 mi East 4.6 mph - 0.00 in   Overcast
4:53 PM 44.1 °F 39.5 °F 39.0 °F 82% 29.85 in 10.0 mi ESE 8.1 mph - N/A   Overcast
5:53 PM 43.0 °F 40.3 °F 37.9 °F 82% 29.83 in 10.0 mi ESE 4.6 mph - N/A   Overcast
6:53 PM 42.1 °F 40.2 °F 41.0 °F 96% 29.83 in 8.0 mi North 3.5 mph - 0.00 in Rain Light Rain
7:53 PM 42.1 °F 39.2 °F 39.0 °F 89% 29.82 in 7.0 mi East 4.6 mph - 0.05 in Rain Light Rain
8:53 PM 41.0 °F 35.8 °F 37.9 °F 89% 29.81 in 6.0 mi East 8.1 mph - 0.08 in Rain Light Rain
9:53 PM 42.1 °F 36.1 °F 37.9 °F 85% 29.80 in 6.0 mi East 10.4 mph - 0.06 in Rain Light Rain
10:53 PM 41.0 °F 35.2 °F 37.9 °F 89% 29.80 in 6.0 mi East 9.2 mph - 0.12 in Rain Rain
11:33 PM 42.1 °F 35.2 °F 37.9 °F 85% 29.79 in 5.0 mi ESE 12.7 mph - 0.10 in Rain Rain
11:53 PM 42.1 °F 34.9 °F 37.0 °F 82% 29.78 in 7.0 mi East 13.8 mph - 0.14 in Rain Light Rain